Showing default

LYRA-3, 64577

Orbit data source: Space-Track

LYRA-3, 64577 is a payload satellite owned by Echostar AU (AU) in SSO that was launched on Mon, 23 Jun 2025 UTC via an FALCON 9 launch vehicle from the Air Force Western Test Range (AFWTR). Payload-class satellites include a variety of spacecraft equipped with specific instruments for various scientific and technological missions. These include communications satellites like Starlink; space stations such as the ISS; scientific satellites like the Hubble; Earth observation satellites from companies like Planet Labs, Umbra, and HawkEye 360; GPS; miniature CubeSats for education and research; and military/defense satellites.

Loading next visibility...
Identifier
64577, 2025-135BB
Orbit
SSO
Country
Flag of AUAU / AUS
Related business
Manufacturer
Astro Digital
Mission
Operational Commercial Communications
Bus & Motor
CORVUS XL, Unknown motor
Mass
74 kg wet, 74 kg dry
Launch date (UTC)
2025-06-23 (1 year ago)
Launch vehicle
FALCON 9
Launch site
Air Force Western Test Range (AFWTR)
Object type
Payload
Rocket body
Debris
Shape & HBR
Box, 1.0 m
Radar Cross Section
0.425 m², Medium (>0.1 m² and < 1m²)

Expand to show TLE details & history
Last TLE update: 13 hours ago

TLE from 13 hours ago
0 LYRA-3
1 64577U 25135BB  26235.74783258  .00001284  00000-0  19904-3 0  9998
2 64577  97.7757 338.0497 0022099 122.6530 237.6815 14.74642015 63227
Epoch: 2026-08-23T17:56Z
TLE epoch observation values (Epoch: 2026-08-23T17:56:52.734Z)
Latitude
-0.00009°
Longitude
96.79055°
Altitude
657.631 km
Speed
7.524 km/s
True Right ascension
22h 32m 11s
True Declination
0° 00' 00"
Sunlit
Object was in full shadow at epoch
Visualization orbit readout
Latitude
Unknown
Longitude
Unknown
Altitude
Unknown
Speed
Unknown
Apparent Right ascension
Unknown
Apparent Declination
Unknown
Sunlit
N/A
Visualization observer readout
Local Sidereal Time
21:43:51
Azimuth
Unknown
Elevation
Unknown
Doppler factor
Unknown
Orbital elements
Apogee altitude
658.847 km
Perigee altitude
627.814 km
Semi-major axis
7,021.467 km
Eccentricity
0.00221
Inclination
97.7757°
RAAN
338.0497°
Arg. of periapsis
122.653°
True anomaly
237.46781°
Mean anomaly
237.6815°
Eccentric anomaly
237.57462°
Mean motion
3.68894 °/min
Orbital period
97.59 mins
BSTAR
0.00019904
Loading maneuver chart data...
Computing Atmospheric mass density...
Loading historical data...
Loading historical data...
Loading historical data...
Loading historical data...
Loading historical data...
Loading historical data...
Loading historical data...

Documentation

Showing up to 5 results
|